This is the latest recevied weather packets stored in our database for station/object N0MR. If no packets are shown the sender has not sent any weather packets the latest 10 day(s).
| Time | Temp. | Humidity | Pressure | Rain* | Wind** | Luminosity | Snow |
|---|---|---|---|---|---|---|---|
| 1788507217 | 14.44° C | 97% | 1011.7 hPa | 1.02 mm | - | - | - |
| 1788506016 | 13.89° C | 96% | 1012 hPa | 0.76 mm | - | - | - |
| 1788505414 | 13.89° C | 96% | 1011.3 hPa | 0.51 mm | - | - | - |
| 1788504814 | 13.89° C | 96% | 1011.3 hPa | 0.51 mm | - | - | - |
| 1788504213 | 13.89° C | 96% | 1012 hPa | 0.25 mm | - | - | - |
| 1788503617 | 14.44° C | 96% | 1011.9 hPa | 0 mm | - | - | - |
| 1788503013 | 14.44° C | 96% | 1011.9 hPa | 0 mm | - | - | - |
| 1788502414 | 14.44° C | 96% | 1012.3 hPa | 0 mm | - | - | - |
| 1788501875 | 14.44° C | 96% | 1012.3 hPa | 0 mm | - | - | - |
| 1788501279 | 14.44° C | 96% | 1012 hPa | 0.51 mm | - | - | - |
| 1788500676 | 14.44° C | 96% | 1012 hPa | 0.51 mm | - | - | - |
| 1788500075 | 14.44° C | 96% | 1012.4 hPa | 3.56 mm | - | - | - |
| 1788499476 | 14.44° C | 96% | 1012.4 hPa | 3.56 mm | - | - | - |
| 1788498875 | 14.44° C | 95% | 1012 hPa | 3.56 mm | - | - | - |
| 1788498305 | 14.44° C | 95% | 1012 hPa | 3.56 mm | - | - | - |
| 1788497675 | 14.44° C | 96% | 1011.5 hPa | 3.05 mm | - | - | - |
| 1788497078 | 14.44° C | 96% | 1011.5 hPa | 3.05 mm | - | - | - |
| 1788496479 | 14.44° C | 95% | 1012 hPa | 0 mm | - | - | - |
| 1788495875 | 14.44° C | 95% | 1012 hPa | 0 mm | - | - | - |
| 1788495275 | 15° C | 95% | 1012.3 hPa | 1.27 mm | - | - | - |
| 1788494678 | 15° C | 95% | 1012.3 hPa | 1.27 mm | - | - | - |
| 1788494078 | 15° C | 95% | 1012.8 hPa | 1.78 mm | - | - | - |
| 1788493477 | 15° C | 95% | 1012.8 hPa | 1.78 mm | - | - | - |
| 1788492874 | 15° C | 95% | 1012.7 hPa | 3.56 mm | - | - | - |
| 1788492277 | 15° C | 95% | 1012.7 hPa | 3.56 mm | - | - | - |
* Rain latest hour (hover to see other rain measurements)
** Current wind speed in m/s (hover to see current wind gust speed)